Torna al catalogo

STARLINK-35099

AttivoComunicazioniVLEO
NORAD 65735·PAYLOAD·🇺🇸 United States

Lanciato Sep 25, 2025 da Cape Canaveral Space Force Station

Loading…

Prossimi Passaggi (prossime 24 ore)

TLE

AggiornatoSource: CelesTrak SupGP

Epoca: Sep 15, 2026, 04:02 UTC

1 65735C 25216B   26258.16854167  .00002816  00000+0  83203-4 0  2587
2 65735  53.1576 170.6431 0001327  78.8668 289.2316 15.34386240    11

Traccia STARLINK-35099 in tempo reale con AllMySat

Download on the App Store